DW5735 Weather Reports


Display with metric or nautical units.
time (UTC)temp
F
wind
direction
speed
MPH
gust
MPH
rain 1hr
in
rain 24hr
in
rain mn
in
humidity
%
barometer
mb
20260903213844 60 243 6.0 9.0 0.00 1.46 0.36 76 1010.2
20260903213327 60 243 6.0 10.0 0.00 1.46 0.36 74 1010.2
20260903213055 59 264 3.0 10.0 0.00 0.37 0.36 77 1009.6
20260903212827 60 214 8.0 10.0 0.00 1.46 0.36 79 1010.2
20260903212319 60 145 5.0 9.0 0.00 1.46 0.36 80 1010.4
20260903211836 60 225 6.0 10.0 0.00 1.46 0.36 81 1010.4
20260903211603 59 252 2.0 10.0 0.00 0.37 0.36 79 1009.8
20260903211325 59 274 7.0 10.0 0.00 1.46 0.36 78 1010.4
20260903210828 59 248 0.0 0.0 0.00 1.46 0.36 77 1010.5
20260903210332 59 281 0.0 0.0 0.00 1.46 0.36 78 1010.6
20260903205838 59 278 0.0 0.0 0.04 1.46 0.36 77 1010.6
20260903205337 58 269 0.0 0.0 0.04 1.46 0.36 78 1010.5
20260903204845 58 263 0.0 3.0 0.04 1.46 0.36 77 1010.5
20260903204335 57 266 0.0 6.0 0.04 1.46 0.36 80 1010.5
20260903203830 56 228 0.0 6.0 0.04 1.46 0.36 83 1010.5
20260903203337 56 191 0.0 8.0 0.08 1.46 0.36 87 1010.4
20260903203059 55 207 1.0 8.0 0.02 0.37 0.36 86 1009.7
20260903202907 55 203 2.0 8.0 0.08 1.46 0.36 88 1010.4
20260903202343 55 176 3.0 8.0 0.08 1.46 0.36 89 1010.5
20260903201850 54 188 2.0 8.0 0.08 1.46 0.36 92 1010.4
20260903201607 54 134 4.0 8.0 0.02 0.37 0.36 93 1009.7
20260903201324 54 151 3.0 8.0 0.08 1.46 0.36 94 1010.4
20260903200818 54 196 2.0 7.0 0.12 1.46 0.36 95 1010.4
20260903200322 54 205 2.0 7.0 0.12 1.46 0.36 95 1010.4
20260903200108 54 211 1.0 6.0 0.02 0.36 0.35 95 1009.6
20260903195826 55 156 0.0 1.0 0.08 1.42 0.35 95 1010.4
20260903195323 55 193 0.0 0.0 0.08 1.42 0.35 96 1010.3
20260903194817 56 16 0.0 0.0 0.08 1.42 0.35 96 1010.3
20260903194554 55 18 0.0 0.0 0.02 0.36 0.35 96 1009.5
20260903194327 55 18 0.0 0.0 0.12 1.42 0.35 96 1010.2
20260903193819 55 56 0.0 0.0 0.12 1.42 0.35 96 1010.2
20260903193318 55 79 0.0 0.0 0.08 1.38 0.34 96 1010.0
20260903193104 55 83 0.0 0.0 0.02 0.35 0.34 96 1009.2
20260903192822 55 74 0.0 0.0 0.08 1.38 0.34 95 1010.0
20260903192351 56 334 0.0 0.0 0.08 1.38 0.34 96 1009.9
20260903191833 56 262 0.0 0.0 0.08 1.38 0.34 96 1009.9
20260903191618 56 262 0.0 0.0 0.02 0.35 0.34 96 1009.1
20260903191321 56 262 0.0 0.0 0.08 1.38 0.34 96 1009.8
20260903190826 56 262 0.0 0.0 0.08 1.34 0.33 96 1009.8
20260903190010 56 203 0.0 0.0 0.02 0.34 0.33 96 1008.9
20260903185834 56 203 0.0 0.0 0.08 1.34 0.33 96 1009.7
20260903185318 56 138 0.0 0.0 0.08 1.34 0.33 96 1009.7
20260903184822 57 162 0.0 0.0 0.08 1.34 0.33 96 1009.7
20260903184608 56 162 0.0 0.0 0.01 0.33 0.32 96 1008.8
20260903184324 56 162 0.0 0.0 0.04 1.30 0.32 96 1009.6
20260903183833 56 169 0.0 0.0 0.08 1.30 0.32 96 1009.6
20260903183323 56 201 0.0 0.0 0.08 1.30 0.32 96 1009.6
20260903182825 56 163 0.0 0.0 0.08 1.30 0.32 96 1009.6
20260903182325 55 169 0.0 0.0 0.08 1.30 0.32 96 1009.5
20260903181825 55 260 0.0 0.0 0.08 1.30 0.32 96 1009.5
20260903181558 55 293 0.0 0.0 0.02 0.33 0.32 96 1008.6
20260903181347 55 53 0.0 0.0 0.08 1.30 0.32 96 1009.4
20260903180824 55 86 0.0 0.0 0.04 1.26 0.31 96 1009.4
20260903180321 55 57 0.0 0.0 0.04 1.26 0.31 96 1009.3
20260903180116 55 57 0.0 0.0 0.01 0.32 0.31 96 1008.4
20260903175820 55 46 0.0 0.0 0.04 1.26 0.31 96 1009.2
20260903175355 55 40 0.0 0.0 0.04 1.26 0.31 96 1009.2
20260903174825 55 68 0.0 0.0 0.04 1.26 0.31 96 1009.1
20260903174556 54 37 0.0 0.0 0.01 0.32 0.31 96 1008.3
20260903174325 55 37 0.0 0.0 0.04 1.26 0.31 96 1009.2
20260903173842 54 57 0.0 0.0 0.04 1.22 0.30 96 1009.1
20260903173334 55 87 0.0 0.0 0.04 1.22 0.30 96 1009.1
20260903173116 54 91 0.0 0.0 0.01 0.31 0.30 96 1008.3
20260903172824 55 91 0.0 0.0 0.04 1.22 0.30 96 1009.1
20260903172318 54 91 0.0 0.0 0.04 1.22 0.30 96 1009.0
20260903171827 54 57 0.0 0.0 0.04 1.22 0.30 96 1009.0
20260903171556 54 52 0.0 0.0 0.02 0.31 0.30 96 1008.1
20260903171353 54 53 0.0 0.0 0.08 1.22 0.30 96 1009.0
20260903170836 54 52 0.0 0.0 0.08 1.22 0.30 96 1009.0
20260903170337 54 52 0.0 0.0 0.12 1.22 0.30 96 1008.9
20260903170104 54 52 0.0 0.0 0.03 0.31 0.30 96 1008.1
20260903165832 54 56 0.0 0.0 0.12 1.30 0.30 96 1008.9
20260903165329 54 56 0.0 0.0 0.16 1.30 0.30 96 1008.7
20260903164821 54 54 0.0 0.0 0.16 1.30 0.30 96 1008.7
20260903164507 54 93 0.0 0.0 0.04 0.33 0.30 96 1007.8
20260903164331 54 94 0.0 0.0 0.16 1.30 0.30 96 1008.8
20260903163834 54 95 0.0 0.0 0.12 1.26 0.29 96 1008.7
20260903163349 54 95 0.0 0.0 0.16 1.26 0.29 96 1008.7
20260903163104 54 95 0.0 0.0 0.04 0.32 0.28 96 1007.9
20260903162824 54 95 0.0 0.0 0.16 1.26 0.29 96 1008.7
20260903162318 54 95 0.0 0.0 0.16 1.26 0.29 96 1008.7
20260903161834 54 95 0.0 0.0 0.16 1.26 0.29 96 1008.7
20260903161552 53 94 0.0 0.0 0.04 0.31 0.28 96 1007.8
20260903161334 54 95 0.0 0.0 0.16 1.22 0.28 96 1008.6
20260903160818 54 95 0.0 0.0 0.16 1.22 0.28 96 1008.5
20260903160322 54 94 0.0 0.0 0.12 1.18 0.27 96 1008.5
20260903160109 53 95 0.0 0.0 0.03 0.30 0.27 96 1007.6
20260903155905 54 95 0.0 0.0 0.12 1.26 0.27 96 1008.5
20260903155323 54 95 0.0 0.0 0.08 1.22 0.26 96 1008.5
20260903154834 53 94 0.0 0.0 0.08 1.22 0.26 96 1008.4
20260903154553 53 94 0.0 0.0 0.02 0.31 0.26 96 1007.6
20260903154351 53 95 0.0 0.0 0.08 1.22 0.26 96 1008.5
20260903153833 53 106 0.0 0.0 0.12 1.22 0.26 96 1008.4
20260903153320 53 104 0.0 0.0 0.08 1.18 0.25 96 1008.4
20260903153112 53 101 0.0 0.0 0.02 0.30 0.25 96 1007.5
20260903152852 53 101 0.0 0.0 0.08 1.18 0.25 96 1008.3
20260903152320 53 113 0.0 0.0 0.08 1.18 0.25 96 1008.3
20260903151830 54 103 0.0 0.0 0.04 1.14 0.24 96 1008.3
20260903151605 53 107 0.0 0.0 0.01 0.28 0.24 96 1007.4
20260903151319 54 98 0.0 0.0 0.04 1.14 0.24 96 1008.3
20260903150821 54 89 0.0 0.0 0.04 1.14 0.24 96 1008.3
20260903150337 54 108 0.0 0.0 0.04 1.14 0.24 96 1008.2
20260903145834 54 103 0.0 0.0 0.04 1.14 0.24 96 1008.3
20260903145342 54 103 0.0 0.0 0.04 1.14 0.24 96 1008.2
20260903144822 54 101 0.0 0.0 0.04 1.14 0.24 96 1008.1
20260903144613 53 115 0.0 0.0 0.01 0.28 0.24 96 1007.2
20260903144318 53 96 0.0 0.0 0.04 1.14 0.24 96 1008.1
20260903143337 53 95 0.0 0.0 0.00 1.10 0.23 96 1007.9
20260903143127 53 86 0.0 0.0 0.01 0.28 0.23 96 1007.1
20260903142832 53 88 0.0 0.0 0.04 1.10 0.23 96 1007.9
20260903142336 53 46 0.0 0.0 0.04 1.10 0.23 96 1007.9
20260903141847 53 60 0.0 0.0 0.04 1.10 0.23 96 1007.9
20260903141603 53 60 0.0 0.0 0.01 0.28 0.23 96 1006.9
20260903141332 53 60 0.0 0.0 0.04 1.10 0.23 96 1007.8
20260903140838 53 49 0.0 0.0 0.04 1.10 0.23 96 1007.9
20260903140332 53 40 0.0 0.0 0.04 1.10 0.23 96 1007.9
20260903140113 52 71 0.0 0.0 0.01 0.28 0.23 96 1007.0
20260903135818 53 96 0.0 0.0 0.04 1.10 0.23 96 1007.8
20260903135336 53 112 0.0 0.0 0.08 1.10 0.23 96 1007.9
20260903134901 53 84 0.0 0.0 0.08 1.10 0.23 96 1007.8
20260903134515 52 95 0.0 0.0 0.02 0.28 0.23 96 1006.8
20260903134338 53 96 0.0 0.0 0.08 1.10 0.23 96 1007.8
20260903133835 53 105 0.0 0.0 0.08 1.10 0.23 96 1007.8
20260903133329 53 107 0.0 0.0 0.04 1.06 0.22 96 1007.7
20260903133033 52 109 0.0 0.0 0.01 0.27 0.22 96 1006.7
20260903132825 53 100 0.0 0.0 0.04 1.06 0.22 96 1007.6
20260903132330 53 101 0.0 0.0 0.04 1.06 0.22 96 1007.6
20260903131539 52 108 0.0 0.0 0.01 0.27 0.22 96 1006.6
20260903131330 53 108 0.0 0.0 0.04 1.06 0.22 96 1007.5
20260903130822 53 120 0.0 0.0 0.04 1.06 0.22 96 1007.5
20260903130322 53 107 0.0 0.0 0.04 1.06 0.22 95 1007.5
20260903125834 53 110 0.0 0.0 0.04 1.06 0.22 95 1007.4
20260903125322 53 113 0.0 0.0 0.04 1.02 0.21 95 1007.4
20260903124848 53 94 0.0 0.0 0.04 1.02 0.21 95 1007.4
20260903124615 53 111 0.0 0.0 0.01 0.26 0.21 96 1006.3
20260903124325 53 111 0.0 0.0 0.04 1.02 0.21 95 1007.3
20260903123846 53 79 0.0 0.0 0.08 1.02 0.21 95 1007.3
20260903123328 53 90 0.0 0.0 0.08 1.02 0.21 95 1007.3
20260903123111 52 101 0.0 0.0 0.02 0.26 0.21 95 1006.3
20260903122842 53 90 0.0 0.0 0.08 1.02 0.21 95 1007.3
20260903122318 53 77 0.0 0.0 0.12 1.02 0.21 95 1007.3
20260903121836 53 94 0.0 0.0 0.12 1.02 0.21 95 1007.3
20260903121602 53 96 0.0 0.0 0.03 0.26 0.21 95 1006.3
20260903121332 53 85 0.0 0.0 0.12 1.02 0.21 95 1007.3
20260903120849 53 112 0.0 0.0 0.16 1.02 0.21 95 1007.3
20260903120357 53 77 0.0 0.0 0.16 1.02 0.21 95 1007.4
20260903120101 53 77 0.0 0.0 0.04 0.26 0.21 95 1006.3
20260903115822 53 79 0.0 0.0 0.16 1.02 0.21 95 1007.3
20260903115330 53 75 0.0 0.0 0.16 0.98 0.20 94 1007.4
20260903114839 53 92 0.0 0.0 0.16 0.98 0.20 94 1007.4
20260903114557 53 104 0.0 0.0 0.04 0.25 0.20 94 1006.4
20260903114318 53 60 0.0 0.0 0.16 0.98 0.20 94 1007.4
20260903113839 53 65 0.0 0.0 0.12 0.94 0.19 94 1007.3
20260903113320 53 94 0.0 0.0 0.16 0.94 0.19 94 1007.3
20260903113026 53 76 0.0 0.0 0.04 0.24 0.19 94 1006.2
20260903112840 53 58 0.0 0.0 0.16 0.94 0.19 94 1007.2
20260903112326 53 61 0.0 0.0 0.20 0.91 0.18 93 1007.0
20260903111820 53 93 0.0 0.0 0.24 0.91 0.18 93 1007.0
20260903111618 53 91 0.0 0.0 0.07 0.23 0.18 92 1006.0
20260903111358 53 101 0.0 0.0 0.31 0.91 0.18 92 1007.0
20260903110824 54 80 0.0 0.0 0.35 0.87 0.17 92 1007.1
20260903110334 54 91 0.0 0.0 0.59 0.87 0.17 92 1007.0
20260903110126 53 77 0.0 0.0 0.16 0.22 0.17 91 1006.0
20260903105818 54 134 0.0 0.0 0.67 0.87 0.17 90 1007.1
20260903105333 54 99 0.0 0.0 0.63 0.83 0.16 90 1007.0
20260903104828 55 39 0.0 0.0 0.63 0.83 0.16 88 1007.1
20260903104318 55 285 0.0 0.0 0.63 0.83 0.16 85 1007.1
20260903103846 56 15 0.0 0.0 0.63 0.83 0.16 83 1007.0
20260903103330 56 262 0.0 8.0 0.59 0.79 0.15 83 1006.9
20260903103057 56 266 0.0 8.0 0.15 0.20 0.15 83 1005.9
20260903102837 57 309 0.0 9.0 0.59 0.79 0.15 81 1006.8
20260903102343 58 282 5.0 12.0 0.51 0.71 0.13 78 1006.8
20260903101829 58 277 8.0 12.0 0.47 0.67 0.12 78 1006.7
20260903101608 58 274 7.0 12.0 0.11 0.16 0.11 79 1005.5
20260903101323 59 294 7.0 11.0 0.39 0.59 0.10 80 1006.5
20260903100819 60 301 3.0 9.0 0.31 0.51 0.08 76 1006.5
20260903100332 61 258 4.0 9.0 0.04 0.24 0.01 72 1006.3
20260903100104 61 271 6.0 11.0 0.01 0.06 0.01 76 1005.2
20260903095824 61 249 7.0 14.0 0.00 0.20 0.00 71 1006.2
20260903095334 61 255 9.0 15.0 0.00 0.20 0.00 66 1006.2
20260903094844 61 269 7.0 13.0 0.00 0.20 0.00 64 1006.1
20260903094559 61 264 6.0 10.0 0.00 0.05 0.00 71 1004.8
20260903094344 61 255 4.0 10.0 0.00 0.20 0.00 73 1005.9
20260903093830 61 249 0.0 0.0 0.00 0.20 0.00 77 1005.9
20260903093347 60 181 0.0 0.0 0.00 0.20 0.00 87 1005.8
20260903093107 60 96 0.0 0.0 0.00 0.05 0.00 87 1004.6
20260903092832 60 77 0.0 0.0 0.00 0.20 0.00 87 1005.7
20260903092321 60 353 0.0 0.0 0.00 0.20 0.00 86 1005.6
20260903091828 60 359 0.0 0.0 0.00 0.20 0.00 88 1005.5
20260903091559 60 30 0.0 0.0 0.00 0.05 0.00 87 1004.3
20260903091352 60 30 0.0 0.0 0.00 0.20 0.00 87 1005.4
20260903090838 60 26 0.0 0.0 0.00 0.20 0.00 88 1005.4
20260903090329 60 25 0.0 0.0 0.00 0.20 0.00 88 1005.5
20260903090111 59 25 0.0 0.0 0.00 0.05 0.00 88 1004.2
20260903085829 60 60 0.0 0.0 0.00 0.20 0.00 88 1005.3
20260903085328 60 50 0.0 0.0 0.00 0.20 0.00 87 1005.3
20260903084836 60 41 0.0 0.0 0.00 0.20 0.00 88 1005.2
20260903084614 60 56 0.0 0.0 0.00 0.05 0.00 88 1004.0
20260903084324 60 50 0.0 0.0 0.00 0.20 0.00 88 1005.2
20260903083837 61 86 0.0 0.0 0.00 0.20 0.00 87 1005.2
20260903083341 61 91 0.0 0.0 0.00 0.20 0.00 87 1005.1
20260903082843 61 93 0.0 0.0 0.00 0.20 0.00 87 1005.0
20260903082326 61 130 0.0 0.0 0.00 0.20 0.00 87 1005.1
20260903081834 60 134 0.0 0.0 0.00 0.20 0.00 87 1005.1
20260903081616 60 156 0.0 0.0 0.00 0.05 0.00 87 1003.9
20260903081350 60 160 0.0 0.0 0.00 0.20 0.00 87 1004.9
20260903080851 60 146 0.0 0.0 0.00 0.20 0.00 87 1004.9
20260903080337 60 150 0.0 0.0 0.00 0.20 0.00 86 1004.9
20260903080005 59 193 0.0 0.0 0.00 0.05 0.00 86 1003.7
20260903075826 60 170 0.0 0.0 0.00 0.20 0.00 86 1004.9
20260903075322 60 165 0.0 0.0 0.00 0.20 0.00 86 1004.8
20260903074828 60 192 0.0 0.0 0.04 0.20 0.00 87 1004.8
20260903074609 59 245 0.0 0.0 0.01 0.05 0.00 87 1003.6
20260903074334 60 228 0.0 0.0 0.04 0.20 0.00 87 1004.9
20260903073834 60 139 0.0 0.0 0.04 0.20 0.00 87 1004.8
20260903073334 60 166 0.0 0.0 0.04 0.20 0.00 87 1004.8
20260903073109 59 154 0.0 0.0 0.01 0.05 0.00 87 1003.6
20260903072829 60 85 0.0 0.0 0.04 0.20 0.00 87 1004.6
20260903072328 60 84 0.0 0.0 0.04 0.20 0.00 88 1004.6
20260903071830 60 44 0.0 0.0 0.04 0.20 0.00 87 1004.5
20260903071557 60 44 0.0 0.0 0.01 0.05 0.00 87 1003.3
20260903071336 60 36 0.0 0.0 0.04 0.20 0.00 87 1004.5
20260903070822 60 36 0.0 0.0 0.04 0.20 0.00 87 1004.5
20260903070332 60 54 0.0 0.0 0.04 0.20 0.00 87 1004.6
20260903070114 60 42 0.0 0.0 0.01 0.05 0.00 87 1003.3
20260903065830 60 39 0.0 0.0 0.04 0.20 0.05 87 1004.5
20260903065328 60 51 0.0 0.0 0.04 0.20 0.05 87 1004.4
20260903064825 60 101 0.0 0.0 0.00 0.16 0.04 86 1004.5
20260903064503 59 74 0.0 0.0 0.00 0.04 0.04 86 1003.2
20260903064328 60 75 0.0 0.0 0.00 0.16 0.04 87 1004.5
20260903063851 60 75 0.0 0.0 0.00 0.16 0.04 87 1004.5
20260903063335 60 75 0.0 0.0 0.00 0.16 0.04 86 1004.6
20260903063103 60 68 0.0 0.0 0.00 0.04 0.04 85 1003.3
20260903062901 60 68 0.0 0.0 0.00 0.16 0.04 85 1004.6
20260903062320 61 91 0.0 0.0 0.00 0.16 0.04 85 1004.6
20260903061837 61 36 0.0 0.0 0.00 0.16 0.04 84 1004.7
20260903061347 61 71 0.0 0.0 0.00 0.16 0.04 83 1004.7
20260903060834 62 20 0.0 0.0 0.00 0.16 0.04 84 1004.7
20260903060325 62 201 0.0 0.0 0.00 0.16 0.04 83 1004.7
20260903060011 61 156 0.0 0.0 0.00 0.04 0.04 83 1003.4
20260903055828 62 215 0.0 0.0 0.00 0.16 0.04 83 1004.7
20260903055319 62 226 0.0 0.0 0.00 0.16 0.04 82 1004.7
20260903054830 62 200 0.0 0.0 0.00 0.16 0.04 82 1004.7
20260903054615 61 201 0.0 0.0 0.00 0.04 0.04 82 1003.5
20260903054325 62 219 0.0 0.0 0.00 0.16 0.04 82 1004.7
20260903053822 62 210 0.0 0.0 0.00 0.16 0.04 82 1004.7
20260903053329 62 163 0.0 0.0 0.00 0.16 0.04 81 1004.6
20260903053017 61 155 0.0 0.0 0.00 0.04 0.04 80 1003.4
20260903052841 62 124 0.0 0.0 0.00 0.16 0.04 80 1004.6
20260903052327 62 88 0.0 0.0 0.00 0.16 0.04 80 1004.6
20260903051848 62 92 0.0 0.0 0.00 0.16 0.04 79 1004.6
20260903051602 62 106 0.0 0.0 0.00 0.04 0.04 80 1003.4
20260903051318 62 70 0.0 0.0 0.00 0.16 0.04 80 1004.6
20260903050836 62 43 0.0 0.0 0.00 0.16 0.04 79 1004.6
20260903050316 63 36 0.0 0.0 0.00 0.16 0.04 77 1004.5
20260903050004 62 57 0.0 0.0 0.00 0.04 0.04 76 1003.2
20260903045826 63 34 0.0 0.0 0.00 0.16 0.04 77 1004.5
20260903045337 63 19 0.0 0.0 0.00 0.16 0.04 75 1004.4
20260903044823 63 358 0.0 0.0 0.00 0.16 0.04 74 1004.3
20260903044607 62 34 0.0 0.0 0.00 0.04 0.04 73 1002.9
20260903044359 63 36 0.0 0.0 0.00 0.16 0.04 73 1004.2
20260903043842 63 36 0.0 0.0 0.00 0.16 0.04 74 1004.1
20260903043318 63 108 0.0 0.0 0.00 0.16 0.04 73 1004.0
20260903043101 62 113 0.0 0.0 0.00 0.04 0.04 73 1002.5
20260903042844 63 96 0.0 0.0 0.00 0.16 0.04 73 1003.8
20260903042328 63 27 0.0 0.0 0.00 0.16 0.04 74 1003.7
20260903041900 63 85 0.0 0.0 0.00 0.16 0.04 74 1003.8
20260903041606 63 86 0.0 0.0 0.00 0.04 0.04 73 1002.4
20260903041332 63 98 0.0 0.0 0.00 0.16 0.04 73 1003.7
20260903040818 64 60 0.0 0.0 0.00 0.16 0.04 73 1003.6
20260903035826 64 31 0.0 0.0 0.00 0.16 0.04 71 1003.5
20260903035355 64 27 0.0 0.0 0.00 0.16 0.04 71 1003.5
20260903034816 64 105 0.0 0.0 0.00 0.16 0.04 71 1003.6
20260903034610 63 114 0.0 0.0 0.00 0.04 0.04 71 1002.2
20260903034333 64 49 0.0 0.0 0.00 0.16 0.04 71 1003.5
20260903033855 64 108 0.0 1.0 0.00 0.16 0.04 72 1003.4
20260903033109 63 40 0.0 5.0 0.00 0.04 0.04 72 1002.0
20260903032834 64 54 0.0 5.0 0.00 0.16 0.04 71 1003.3
20260903032333 64 56 1.0 7.0 0.00 0.16 0.04 71 1003.1
20260903031819 64 68 2.0 8.0 0.00 0.16 0.04 71 1003.1
20260903031605 63 66 0.0 0.0 0.00 0.04 0.04 72 1001.7
20260903031328 64 38 0.0 0.0 0.00 0.16 0.04 71 1003.0
20260903030847 64 31 0.0 0.0 0.00 0.16 0.04 72 1002.9
20260903030344 64 34 0.0 0.0 0.00 0.16 0.04 73 1002.8
20260903030056 63 58 0.0 0.0 0.00 0.04 0.04 72 1001.5
20260903025855 64 70 0.0 0.0 0.00 0.16 0.04 71 1002.8
20260903025337 65 30 0.0 0.0 0.00 0.16 0.04 72 1002.8
20260903024854 65 77 0.0 0.0 0.00 0.16 0.04 71 1002.7
20260903024606 64 77 0.0 0.0 0.00 0.04 0.04 72 1001.3
20260903024332 65 31 0.0 0.0 0.00 0.16 0.04 70 1002.7
20260903023840 65 64 0.0 0.0 0.00 0.16 0.04 69 1002.7
20260903023328 65 87 0.0 0.0 0.00 0.16 0.04 68 1002.9
20260903023100 65 101 0.0 0.0 0.00 0.04 0.04 69 1001.5
20260903022828 65 76 0.0 0.0 0.00 0.16 0.04 69 1002.9
20260903022350 65 49 0.0 0.0 0.00 0.16 0.04 73 1002.8
20260903021841 66 40 0.0 5.0 0.00 0.16 0.04 70 1002.9
20260903021611 65 74 0.0 5.0 0.00 0.04 0.04 69 1001.5
20260903021355 66 91 1.0 5.0 0.00 0.16 0.04 68 1002.9
20260903020839 66 103 0.0 7.0 0.00 0.16 0.04 66 1003.0
20260903020342 66 104 3.0 7.0 0.00 0.16 0.04 66 1002.8
20260903015846 66 71 2.0 6.0 0.00 0.16 0.04 68 1002.8
20260903015332 66 93 1.0 5.0 0.00 0.16 0.04 68 1002.7
20260903014828 66 95 2.0 8.0 0.00 0.16 0.04 68 1002.6
20260903014319 66 98 2.0 8.0 0.00 0.16 0.04 68 1002.5
20260903013841 66 94 0.0 6.0 0.00 0.16 0.04 68 1002.3
20260903013333 67 66 1.0 7.0 0.00 0.16 0.04 67 1002.4
20260903013012 66 67 2.0 7.0 0.00 0.04 0.04 67 1000.8
20260903012834 67 88 1.0 4.0 0.00 0.16 0.04 67 1002.3
20260903012331 67 117 0.0 0.0 0.00 0.16 0.04 68 1002.4
20260903011821 67 29 0.0 0.0 0.00 0.16 0.04 69 1002.5
20260903011606 66 89 0.0 0.0 0.00 0.04 0.04 69 1000.9
20260903011338 67 144 0.0 0.0 0.00 0.16 0.04 69 1002.4
20260903010830 66 58 0.0 0.0 0.00 0.16 0.04 69 1002.4
20260903010328 66 68 0.0 0.0 0.00 0.16 0.04 70 1002.3
20260903010111 66 40 0.0 0.0 0.00 0.04 0.04 70 1000.9
20260903005832 67 54 0.0 0.0 0.00 0.16 0.04 70 1002.3
20260903005316 67 43 0.0 0.0 0.00 0.16 0.04 71 1002.4
20260903004840 67 61 0.0 0.0 0.00 0.16 0.04 71 1002.5
20260903004618 66 70 0.0 0.0 0.00 0.04 0.04 71 1000.9
20260903004322 66 71 0.0 0.0 0.00 0.16 0.04 72 1002.3
20260903003829 66 39 0.0 0.0 0.00 0.16 0.04 71 1002.3
20260903003355 66 61 0.0 0.0 0.00 0.16 0.04 71 1002.3
20260903003116 66 62 0.0 4.0 0.00 0.04 0.04 71 1000.9
20260903002820 66 34 0.0 4.0 0.00 0.16 0.04 70 1002.3
20260903002350 66 21 0.0 2.0 0.00 0.16 0.04 68 1002.2
20260903001830 66 48 0.0 5.0 0.00 0.16 0.04 67 1002.2
20260903001605 66 70 0.0 5.0 0.00 0.04 0.04 67 1000.7
20260903001321 67 78 1.0 5.0 0.00 0.16 0.04 67 1002.2
20260903000841 67 56 0.0 4.0 0.00 0.16 0.04 67 1002.2
20260903000326 67 68 0.0 12.0 0.00 0.16 0.04 64 1002.2
20260903000010 67 73 0.0 12.0 0.00 0.04 0.04 64 1000.7
20260902235833 68 27 1.0 12.0 0.00 0.16 0.04 65 1002.1
20260902235327 68 22 10.0 12.0 0.00 0.16 0.04 67 1002.1
20260902234839 68 20 10.0 12.0 0.00 0.16 0.04 71 1002.1
20260902234611 68 21 8.0 11.0 0.00 0.04 0.04 71 1000.6
20260902234331 70 31 6.0 8.0 0.00 0.16 0.04 69 1002.2
20260902233832 70 44 0.0 7.0 0.00 0.16 0.04 68 1002.2
20260902233328 70 32 0.0 0.0 0.00 0.16 0.04 71 1002.1
20260902233109 69 27 0.0 0.0 0.00 0.04 0.04 74 1000.7
20260902232835 70 19 0.0 0.0 0.00 0.16 0.04 70 1002.2
20260902232324 70 291 0.0 0.0 0.00 0.16 0.04 65 1002.1
20260902231832 69 193 0.0 5.0 0.00 0.16 0.04 67 1002.1
20260902231515 68 141 0.0 6.0 0.00 0.04 0.04 68 1000.6
20260902231331 69 216 0.0 7.0 0.00 0.16 0.04 67 1002.1
20260902230826 69 232 1.0 7.0 0.00 0.16 0.04 71 1002.3
20260902230330 69 236 0.0 7.0 0.00 0.16 0.04 66 1002.3
20260902230106 68 191 0.0 7.0 0.00 0.04 0.04 68 1001.0
20260902225845 69 246 0.0 7.0 0.00 0.16 0.04 69 1002.6
20260902225336 70 232 3.0 7.0 0.00 0.16 0.04 70 1002.7
20260902224827 71 226 3.0 6.0 0.00 0.16 0.04 67 1002.7
20260902224606 70 210 4.0 7.0 0.00 0.04 0.04 68 1001.1
20260902224329 71 228 1.0 11.0 0.00 0.16 0.04 63 1002.5
20260902223825 71 231 4.0 11.0 0.00 0.16 0.04 58 1002.4
20260902223340 72 238 5.0 12.0 0.00 0.16 0.04 64 1002.5
20260902223058 72 229 0.0 1.0 0.00 0.04 0.04 64 1001.0
20260902222820 72 231 0.0 0.0 0.00 0.16 0.04 63 1002.4
20260902222347 72 229 0.0 0.0 0.00 0.16 0.04 63 1002.4
20260902221832 73 226 0.0 0.0 0.00 0.16 0.04 66 1002.3
20260902221616 72 239 0.0 0.0 0.00 0.04 0.04 65 1000.8
20260902221354 73 245 0.0 0.0 0.00 0.16 0.04 60 1002.3
20260902220836 73 257 0.0 0.0 0.00 0.16 0.04 63 1002.5
20260902220330 73 270 0.0 0.0 0.00 0.16 0.04 60 1002.5
20260902220101 72 269 0.0 0.0 0.00 0.04 0.04 59 1001.1
20260902215834 73 274 0.0 0.0 0.00 0.16 0.04 59 1002.4
20260902215327 73 16 0.0 0.0 0.00 0.16 0.04 58 1002.7
20260902214828 73 343 0.0 0.0 0.00 0.16 0.04 59 1002.7
20260902214557 72 16 0.0 0.0 0.00 0.04 0.04 59 1001.2
20260902214328 73 23 0.0 0.0 0.00 0.16 0.04 61 1002.8